Погода в Шлиссельбурге

Россия / Санкт-Петербург и Ленинградская область     59°56′05″N   31°01′35″E
темп.,
°C
ветер,
м/с
пор.,
м/с
влажн.,
%
обл.,
%
осадки,
мм/ч
давл.,
гПа
погр.,
м
13 июня, вс
вс1300:00+13ююв25962 0.0 100286
03:00+12ююв28977 0.0 1002141
06:00+14ююв288875 0.0 1001201
09:00+18ю3571100 0.0 1002346
12:00+22ююв475113 0.1 10021521
15:00+19зюз588294 1.9 1003595
18:00+15з368871 0.6 1005337
21:00+15сз258698 0.6 1007377
14 июня, пн
пн1400:00+13ссз3985100 0.1 1010452
03:00+11зсз3888100 0.1 1012261
06:00+12зсз258379 0.0 1014162
09:00+17зсз245738 0.0 1015731
12:00+19сз234014 0.0 10161661
15:00+19з4437100 0.0 10161300
18:00+18з3540100 0.0 1016617
21:00+13зюз2361100 0.0 101564
15 июня, вт
вт1500:00+10ююз236485 0.0 101450
03:00+10ююз397053 0.0 1013154
06:00+12ююз41366100 0.0 1011340
09:00+17ююз51251100 0.0 1009727
12:00+20юз5949100 0.0 10081206
15:00+13зюз31097100 2.0 1009480
18:00+16з3780100 0.2 1009759
21:00+14з41174100 0.3 1009488
16 июня, ср
ср1600:00+11з4109227 0.0 1011241
03:00+11зсз39885 0.0 1013244
06:00+11зсз38740 0.0 1015238
09:00+16зсз35500 0.0 1017975
12:00+19зсз46385 0.0 10181886
15:00+19з673934 0.0 10191571
18:00+18з5746100 0.0 1019779
21:00+14зюз38655 0.0 1020201
17 июня, чт
чт1700:00+11зюз38755 0.0 1021128
03:00+10зюз38755 0.0 1022143
06:00+13зюз377077 0.0 1023164
09:00+19юз364948 0.0 1024567
12:00+22зюз4638100 0.0 10231341
15:00+24зюз4638100 0.0 10231558
18:00+23з36410 0.0 10221009
21:00+18з22667 0.0 102319